TimeCDT,TemperatureF,Dew PointF,Humidity,Sea Level PressureIn,VisibilityMPH,Wind Direction,Wind SpeedMPH,Gust SpeedMPH,PrecipitationIn,Events,Conditions,WindDirDegrees,DateUTC
12:53 AM,48.9,43.0,80,30.12,10.0,SSE,6.9,-,N/A,,Clear,160,2012-10-09 05:53:00
1:53 AM,46.9,43.0,86,30.13,10.0,SSW,3.5,-,N/A,,Clear,200,2012-10-09 06:53:00
3:53 AM,46.0,44.1,93,30.11,10.0,South,3.5,-,N/A,,Clear,190,2012-10-09 08:53:00
4:53 AM,44.1,42.1,93,30.10,10.0,Calm,Calm,-,N/A,,Clear,0,2012-10-09 09:53:00
5:53 AM,42.1,41.0,96,30.11,7.0,Calm,Calm,-,N/A,,Clear,0,2012-10-09 10:53:00
6:53 AM,39.9,39.9,100,30.11,6.0,East,3.5,-,N/A,,Clear,80,2012-10-09 11:53:00
7:53 AM,45.0,44.1,97,30.11,8.0,SSE,8.1,-,N/A,,Clear,160,2012-10-09 12:53:00
8:53 AM,51.1,46.0,83,30.13,10.0,South,11.5,-,N/A,,Clear,180,2012-10-09 13:53:00
9:53 AM,55.9,48.0,75,30.12,10.0,South,5.8,-,N/A,,Clear,170,2012-10-09 14:53:00
10:53 AM,57.9,48.9,72,30.11,10.0,South,6.9,-,N/A,,Overcast,180,2012-10-09 15:53:00
11:53 AM,61.0,50.0,67,30.09,10.0,SSE,5.8,-,N/A,,Overcast,150,2012-10-09 16:53:00
12:53 PM,64.9,52.0,63,30.05,10.0,South,6.9,-,N/A,,Overcast,170,2012-10-09 17:53:00
1:53 PM,68.0,54.0,61,30.01,10.0,South,4.6,-,N/A,,Overcast,170,2012-10-09 18:53:00
2:53 PM,70.0,55.0,59,29.97,10.0,South,12.7,-,N/A,,Overcast,190,2012-10-09 19:53:00
3:53 PM,73.0,57.0,57,29.94,10.0,SSE,15.0,18.4,N/A,,Mostly Cloudy,160,2012-10-09 20:53:00
4:53 PM,71.1,57.9,63,29.93,10.0,South,9.2,-,N/A,,Overcast,190,2012-10-09 21:53:00
5:53 PM,71.1,59.0,66,29.92,10.0,South,9.2,-,N/A,,Overcast,190,2012-10-09 22:53:00
6:53 PM,70.0,60.1,71,29.93,10.0,South,4.6,-,N/A,,Overcast,180,2012-10-09 23:53:00
7:53 PM,69.1,60.1,73,29.95,10.0,South,3.5,-,N/A,,Overcast,180,2012-10-10 00:53:00
8:53 PM,69.1,61.0,75,29.98,10.0,Calm,Calm,-,N/A,,Overcast,0,2012-10-10 01:53:00
9:53 PM,66.9,62.1,84,30.00,10.0,Calm,Calm,-,N/A,,Overcast,0,2012-10-10 02:53:00
10:53 PM,66.9,61.0,81,30.02,10.0,East,3.5,-,N/A,,Overcast,80,2012-10-10 03:53:00
11:53 PM,66.0,62.1,87,30.03,10.0,Calm,Calm,-,N/A,,Overcast,0,2012-10-10 04:53:00